"Pseudo-MPEC" for P10NPL8

Created 2019 May 17 15:07:21 UT using Find_Orb

Click here for an explanation of pseudo-MPECs

 
 Astrometry: 
     P10NPL8  C2019 05 10VnBl6St?86qY)WAstrometryoHBoqEMCgredacted;(esqclickWF51
     P10NPL8  C2019 05 10T'%vMoPhereH50`%[sbfor9h1[^1,)8PK@;xlLRsexplanationRF51

Station data:
(F51) Pan-STARRS 1, Haleakala  (N20.707235 W156.255910)  US/Hawaii.
   Observers N. Primak, A. Schultz, S. Watters, J. Thiel, T. Goggia. Measurer
   PS1 Science Consortium. 1.8-m Ritchey-Chrétien + CCD.

Orbital elements:  P10NPL8
   Perihelion 2019 Mar 10.658409 +/- 34.9 TT = 15:48:06 (JD 2458553.158409)
Epoch 2019 May 11.0 TT = JDT 2458614.5   Earth MOID: 0.0003   AutoNEOCP
M  53.87858684 +/- 21               (J2000 ecliptic)
n   0.87833696 +/- 0.405            Peri.  311.06451 +/- 80
a   1.07984629 +/- 0.332            Node   214.91576 +/- 70
e   0.0976897 +/- 0.244             Incl.    1.23281 +/- 5.9
P   1.12/409.86d           H 29.3   G  0.15   U 12.1  SR
q 0.97435636 +/- 0.226    Q 1.18533622 +/- 42.1
From 2 observations 2019 May 10 (17.5 min); mean residual 0".01
Residuals in arcseconds: 
190510 F51  .01-  .02+    190510 F51  .01-  .02+    

Ephemerides (geocentric):
Date (UTC) HH   RA              Dec         delta   r     elong  mag " sig PA
---- -- -- --  -------------   -----------  ------ ------ -----  --- ---- ---
2019 05 17 15  15 11 50.094   +01 10 08.79  .02524 1.0348 158.7 22.5  52d   4
2019 05 17 16  15 11 59.229   +01 09 00.31  .02529 1.0349 158.7 22.5  52d   4
2019 05 17 17  15 12 08.325   +01 07 52.04  .02535 1.0349 158.8 22.5  52d   4
2019 05 17 18  15 12 17.382   +01 06 43.99  .02541 1.0350 158.8 22.5  52d   4
2019 05 17 19  15 12 26.401   +01 05 36.14  .02546 1.0351 158.8 22.5  52d   4
2019 05 17 20  15 12 35.381   +01 04 28.51  .02552 1.0351 158.8 22.5  52d   4
2019 05 17 21  15 12 44.323   +01 03 21.09  .02558 1.0352 158.8 22.5  52d   4
2019 05 17 22  15 12 53.227   +01 02 13.87  .02563 1.0353 158.8 22.5  52d   4
2019 05 17 23  15 13 02.094   +01 01 06.86  .02569 1.0353 158.8 22.5  52d   4
2019 05 18 00  15 13 10.923   +01 00 00.06  .02575 1.0354 158.8 22.5  53d   4
2019 05 18 01  15 13 19.715   +00 58 53.46  .02581 1.0354 158.8 22.5  53d   4
2019 05 18 02  15 13 28.470   +00 57 47.07  .02586 1.0355 158.8 22.5  53d   4
2019 05 18 03  15 13 37.188   +00 56 40.87  .02592 1.0356 158.8 22.5  53d   4
2019 05 18 04  15 13 45.869   +00 55 34.88  .02598 1.0356 158.8 22.5  53d   4
2019 05 18 05  15 13 54.515   +00 54 29.08  .02603 1.0357 158.8 22.5  53d   4
2019 05 18 06  15 14 03.124   +00 53 23.48  .02609 1.0358 158.9 22.5  53d   4
2019 05 18 07  15 14 11.697   +00 52 18.08  .02615 1.0358 158.9 22.5  53d   4
2019 05 18 08  15 14 20.234   +00 51 12.87  .02621 1.0359 158.9 22.5  53d   4
2019 05 18 09  15 14 28.736   +00 50 07.86  .02626 1.0360 158.9 22.5  53d   4
2019 05 18 10  15 14 37.202   +00 49 03.04  .02632 1.0360 158.9 22.5  53d   4
2019 05 18 11  15 14 45.634   +00 47 58.42  .02638 1.0361 158.9 22.5  53d   4
2019 05 18 12  15 14 54.030   +00 46 53.98  .02643 1.0361 158.9 22.6  53d   4
2019 05 18 13  15 15 02.392   +00 45 49.73  .02649 1.0362 158.9 22.6  53d   4
2019 05 18 14  15 15 10.719   +00 44 45.67  .02655 1.0363 158.9 22.6  53d   4
2019 05 18 15  15 15 19.012   +00 43 41.80  .02661 1.0363 158.9 22.6  53d   4
2019 05 18 16  15 15 27.271   +00 42 38.12  .02666 1.0364 158.9 22.6  53d   4
2019 05 18 17  15 15 35.496   +00 41 34.62  .02672 1.0365 158.9 22.6  53d   4
2019 05 18 18  15 15 43.688   +00 40 31.30  .02678 1.0365 158.9 22.6  53d   4
2019 05 18 19  15 15 51.846   +00 39 28.16  .02684 1.0366 158.9 22.6  53d   4
2019 05 18 20  15 15 59.970   +00 38 25.21  .02689 1.0367 158.9 22.6  53d   4
2019 05 18 21  15 16 08.062   +00 37 22.44  .02695 1.0367 158.9 22.6  53d   4
2019 05 18 22  15 16 16.120   +00 36 19.84  .02701 1.0368 159.0 22.6  53d   4
2019 05 18 23  15 16 24.146   +00 35 17.43  .02707 1.0368 159.0 22.6  54d   4
2019 05 19 00  15 16 32.139   +00 34 15.19  .02712 1.0369 159.0 22.6  54d   4
2019 05 19 01  15 16 40.100   +00 33 13.12  .02718 1.0370 159.0 22.6  54d   4
2019 05 19 02  15 16 48.028   +00 32 11.24  .02724 1.0370 159.0 22.6  54d   4
2019 05 19 03  15 16 55.925   +00 31 09.52  .02730 1.0371 159.0 22.6  54d   4
2019 05 19 04  15 17 03.790   +00 30 07.98  .02736 1.0372 159.0 22.6  54d   4
2019 05 19 05  15 17 11.623   +00 29 06.61  .02741 1.0372 159.0 22.6  54d   4
2019 05 19 06  15 17 19.424   +00 28 05.41  .02747 1.0373 159.0 22.6  54d   4
2019 05 19 07  15 17 27.195   +00 27 04.38  .02753 1.0374 159.0 22.6  54d   4
2019 05 19 08  15 17 34.934   +00 26 03.52  .02759 1.0374 159.0 22.6  54d   4
2019 05 19 09  15 17 42.642   +00 25 02.82  .02765 1.0375 159.0 22.6  54d   4
2019 05 19 10  15 17 50.320   +00 24 02.29  .02770 1.0375 159.0 22.7  54d   4
2019 05 19 11  15 17 57.967   +00 23 01.93  .02776 1.0376 159.0 22.7  54d   4
2019 05 19 12  15 18 05.583   +00 22 01.73  .02782 1.0377 159.0 22.7  54d   4
2019 05 19 13  15 18 13.170   +00 21 01.70  .02788 1.0377 159.0 22.7  54d   4
2019 05 19 14  15 18 20.726   +00 20 01.83  .02794 1.0378 159.0 22.7  54d   4